Time,TemperatureF,DewpointF,PressureIn,WindDirection,WindDirectionDegrees,WindSpeedMPH,WindSpeedGustMPH,Humidity,HourlyPrecipIn,Conditions,Clouds,dailyrainin,SoftwareType,DateUTC
2013-01-10 00:01:00,43.1,31.7,29.93,NW,319,2.0,2.0,64,0.00,,,0.00,Wunderground v.1.15,2013-01-10 05:01:00,
2013-01-10 00:06:00,43.1,31.7,29.94,West,279,2.0,2.0,64,0.00,,,0.00,Wunderground v.1.15,2013-01-10 05:06:00,
2013-01-10 00:11:00,43.0,31.6,29.94,West,279,1.0,2.0,64,0.00,,,0.00,Wunderground v.1.15,2013-01-10 05:11:00,
2013-01-10 00:21:00,42.7,31.4,29.94,WNW,289,1.0,3.0,64,0.00,,,0.00,Wunderground v.1.15,2013-01-10 05:21:00,
2013-01-10 00:31:00,42.4,31.1,29.94,WNW,287,1.0,2.0,64,0.00,,,0.00,Wunderground v.1.15,2013-01-10 05:31:00,
2013-01-10 00:41:00,42.5,31.2,29.94,NW,307,1.0,2.0,64,0.00,,,0.00,Wunderground v.1.15,2013-01-10 05:41:00,
2013-01-10 00:51:00,42.5,31.2,29.94,NW,307,1.0,1.0,64,0.00,,,0.00,Wunderground v.1.15,2013-01-10 05:51:00,
2013-01-10 01:01:00,42.5,31.2,29.95,NW,313,1.0,1.0,64,0.00,,,0.00,Wunderground v.1.15,2013-01-10 06:01:00,
2013-01-10 01:11:00,42.5,31.2,29.95,NW,306,1.0,4.0,64,0.00,,,0.00,Wunderground v.1.15,2013-01-10 06:11:00,
2013-01-10 01:16:00,42.5,31.2,29.95,NW,306,1.0,4.0,64,0.00,,,0.00,Wunderground v.1.15,2013-01-10 06:16:00,
2013-01-10 01:26:00,42.4,31.1,29.95,North,11,1.0,2.0,64,0.00,,,0.00,Wunderground v.1.15,2013-01-10 06:26:00,
2013-01-10 01:31:00,42.3,31.0,29.96,ENE,72,1.0,1.0,64,0.00,,,0.00,Wunderground v.1.15,2013-01-10 06:31:00,
2013-01-10 01:41:00,42.5,31.2,29.96,NNW,348,2.0,2.0,64,0.00,,,0.00,Wunderground v.1.15,2013-01-10 06:41:00,
2013-01-10 01:51:00,42.3,31.0,29.96,North,360,1.0,3.0,64,0.00,,,0.00,Wunderground v.1.15,2013-01-10 06:51:00,
2013-01-10 01:56:00,42.2,30.9,29.96,North,5,1.0,3.0,64,0.00,,,0.00,Wunderground v.1.15,2013-01-10 06:56:00,
2013-01-10 02:06:00,42.0,30.7,29.97,North,5,0.0,1.0,64,0.00,,,0.00,Wunderground v.1.15,2013-01-10 07:06:00,
2013-01-10 02:16:00,42.1,31.2,29.98,WNW,282,1.0,1.0,65,0.00,,,0.00,Wunderground v.1.15,2013-01-10 07:16:00,
2013-01-10 02:26:00,42.8,31.5,29.99,NE,49,2.0,2.0,64,0.00,,,0.00,Wunderground v.1.15,2013-01-10 07:26:00,
2013-01-10 02:36:00,43.0,31.3,29.99,WSW,251,2.0,2.0,63,0.00,,,0.00,Wunderground v.1.15,2013-01-10 07:36:00,
2013-01-10 02:46:00,42.9,30.8,30.00,NW,310,3.0,5.0,62,0.00,,,0.00,Wunderground v.1.15,2013-01-10 07:46:00,
2013-01-10 02:56:00,42.8,30.7,30.01,West,275,3.0,4.0,62,0.00,,,0.00,Wunderground v.1.15,2013-01-10 07:56:00,
2013-01-10 03:01:00,42.8,30.7,30.01,WSW,244,3.0,4.0,62,0.00,,,0.00,Wunderground v.1.15,2013-01-10 08:01:00,
2013-01-10 03:10:00,42.5,30.8,30.02,WSW,242,2.0,2.0,63,0.00,,,0.00,Wunderground v.1.15,2013-01-10 08:10:00,
2013-01-10 03:16:00,42.2,30.9,30.02,WSW,246,2.0,2.0,64,0.00,,,0.00,Wunderground v.1.15,2013-01-10 08:16:00,
2013-01-10 03:26:00,41.7,30.8,30.03,WSW,253,2.0,2.0,65,0.00,,,0.00,Wunderground v.1.15,2013-01-10 08:26:00,
2013-01-10 03:36:00,41.5,30.6,30.04,West,259,2.0,2.0,65,0.00,,,0.00,Wunderground v.1.15,2013-01-10 08:36:00,
2013-01-10 03:46:00,41.4,30.5,30.04,WNW,284,2.0,2.0,65,0.00,,,0.00,Wunderground v.1.15,2013-01-10 08:46:00,
2013-01-10 03:55:00,41.3,30.4,30.05,NW,306,1.0,3.0,65,0.00,,,0.00,Wunderground v.1.15,2013-01-10 08:55:00,
2013-01-10 04:01:00,41.2,30.3,30.05,NNW,327,2.0,2.0,65,0.00,,,0.00,Wunderground v.1.15,2013-01-10 09:01:00,
2013-01-10 04:06:00,41.3,30.4,30.06,NNE,28,2.0,3.0,65,0.00,,,0.00,Wunderground v.1.15,2013-01-10 09:06:00,
2013-01-10 04:16:00,41.3,30.0,30.06,WSW,246,3.0,3.0,64,0.00,,,0.00,Wunderground v.1.15,2013-01-10 09:16:00,
2013-01-10 04:25:00,41.3,30.0,30.07,West,260,2.0,3.0,64,0.00,,,0.00,Wunderground v.1.15,2013-01-10 09:25:00,
2013-01-10 04:36:00,41.2,29.9,30.07,WNW,292,3.0,5.0,64,0.00,,,0.00,Wunderground v.1.15,2013-01-10 09:36:00,
2013-01-10 04:46:00,41.0,30.1,30.08,SW,236,2.0,3.0,65,0.00,,,0.00,Wunderground v.1.15,2013-01-10 09:46:00,
2013-01-10 04:56:00,41.0,30.1,30.09,NW,322,3.0,4.0,65,0.00,,,0.00,Wunderground v.1.15,2013-01-10 09:56:00,
2013-01-10 05:05:00,40.8,29.9,30.10,SSW,207,2.0,3.0,65,0.00,,,0.00,Wunderground v.1.15,2013-01-10 10:05:00,
2013-01-10 05:16:00,40.5,30.0,30.10,NNW,327,2.0,2.0,66,0.00,,,0.00,Wunderground v.1.15,2013-01-10 10:16:00,
2013-01-10 05:26:00,40.3,29.8,30.10,WNW,302,1.0,2.0,66,0.00,,,0.00,Wunderground v.1.15,2013-01-10 10:26:00,
2013-01-10 05:35:00,40.0,29.6,30.10,NW,307,2.0,4.0,66,0.00,,,0.00,Wunderground v.1.15,2013-01-10 10:35:00,
2013-01-10 05:41:00,40.0,29.9,30.10,North,355,2.0,2.0,67,0.00,,,0.00,Wunderground v.1.15,2013-01-10 10:41:00,
2013-01-10 05:46:00,40.0,29.6,30.11,WSW,252,2.0,4.0,66,0.00,,,0.00,Wunderground v.1.15,2013-01-10 10:46:00,
2013-01-10 05:56:00,40.1,29.6,30.11,SW,225,2.0,3.0,66,0.00,,,0.00,Wunderground v.1.15,2013-01-10 10:56:00,
2013-01-10 06:06:00,39.8,29.7,30.12,West,276,2.0,3.0,67,0.00,,,0.00,Wunderground v.1.15,2013-01-10 11:06:00,
2013-01-10 06:15:00,39.7,29.6,30.12,WSW,251,2.0,2.0,67,0.00,,,0.00,Wunderground v.1.15,2013-01-10 11:15:00,
2013-01-10 06:26:00,39.7,29.3,30.13,WSW,248,2.0,3.0,66,0.00,,,0.00,Wunderground v.1.15,2013-01-10 11:26:00,
2013-01-10 06:36:00,39.5,29.1,30.14,WSW,255,1.0,1.0,66,0.00,,,0.00,Wunderground v.1.15,2013-01-10 11:36:00,
2013-01-10 06:46:00,39.3,28.9,30.15,NW,325,1.0,4.0,66,0.00,,,0.00,Wunderground v.1.15,2013-01-10 11:46:00,
2013-01-10 06:56:00,39.3,28.5,30.15,West,264,2.0,2.0,65,0.00,,,0.00,Wunderground v.1.15,2013-01-10 11:56:00,
2013-01-10 07:01:00,39.4,28.6,30.16,West,259,2.0,3.0,65,0.00,,,0.00,Wunderground v.1.15,2013-01-10 12:01:00,
2013-01-10 07:06:00,39.4,28.6,30.16,SE,126,2.0,3.0,65,0.00,,,0.00,Wunderground v.1.15,2013-01-10 12:06:00,
2013-01-10 07:16:00,39.2,28.4,30.16,SE,134,1.0,2.0,65,0.00,,,0.00,Wunderground v.1.15,2013-01-10 12:16:00,
2013-01-10 07:26:00,39.0,28.6,30.16,SW,215,1.0,4.0,66,0.00,,,0.00,Wunderground v.1.15,2013-01-10 12:26:00,
2013-01-10 07:36:00,38.9,28.5,30.17,North,360,1.0,1.0,66,0.00,,,0.00,Wunderground v.1.15,2013-01-10 12:36:00,
2013-01-10 07:46:00,38.9,28.1,30.18,ENE,58,1.0,2.0,65,0.00,,,0.00,Wunderground v.1.15,2013-01-10 12:46:00,
2013-01-10 07:56:00,39.0,27.8,30.19,NE,53,1.0,1.0,64,0.00,,,0.00,Wunderground v.1.15,2013-01-10 12:56:00,
2013-01-10 08:01:00,39.0,27.8,30.19,NE,52,1.0,1.0,64,0.00,,,0.00,Wunderground v.1.15,2013-01-10 13:01:00,
2013-01-10 08:11:00,39.3,27.4,30.20,West,273,2.0,3.0,62,0.00,,,0.00,Wunderground v.1.15,2013-01-10 13:11:00,
2013-01-10 08:16:00,39.4,27.5,30.20,NNW,339,1.0,3.0,62,0.00,,,0.00,Wunderground v.1.15,2013-01-10 13:16:00,
2013-01-10 08:26:00,39.8,27.0,30.21,SW,235,2.0,2.0,60,0.00,,,0.00,Wunderground v.1.15,2013-01-10 13:26:00,
2013-01-10 08:31:00,40.1,27.3,30.22,SW,226,2.0,2.0,60,0.00,,,0.00,Wunderground v.1.15,2013-01-10 13:31:00,
2013-01-10 08:36:00,40.2,27.4,30.22,SW,219,1.0,2.0,60,0.00,,,0.00,Wunderground v.1.15,2013-01-10 13:36:00,
2013-01-10 08:46:00,40.5,27.3,30.22,NNE,22,2.0,3.0,59,0.00,,,0.00,Wunderground v.1.15,2013-01-10 13:46:00,
2013-01-10 08:56:00,40.8,27.2,30.22,NNE,22,2.0,3.0,58,0.00,,,0.00,Wunderground v.1.15,2013-01-10 13:56:00,
2013-01-10 09:06:00,41.1,27.4,30.21,West,261,2.0,3.0,58,0.00,,,0.00,Wunderground v.1.15,2013-01-10 14:06:00,
2013-01-10 09:11:00,41.1,27.0,30.22,NNE,13,2.0,2.0,57,0.00,,,0.00,Wunderground v.1.15,2013-01-10 14:11:00,
2013-01-10 09:21:00,41.4,27.7,30.22,NNE,21,3.0,3.0,58,0.00,,,0.00,Wunderground v.1.15,2013-01-10 14:21:00,
2013-01-10 09:26:00,41.5,27.8,30.22,NNW,327,3.0,3.0,58,0.00,,,0.00,Wunderground v.1.15,2013-01-10 14:26:00,
2013-01-10 09:36:00,41.7,28.0,30.22,West,265,2.0,3.0,58,0.00,,,0.00,Wunderground v.1.15,2013-01-10 14:36:00,
2013-01-10 09:46:00,42.3,28.1,30.23,NE,35,2.0,5.0,57,0.00,,,0.00,Wunderground v.1.15,2013-01-10 14:46:00,
2013-01-10 09:51:00,42.6,28.4,30.23,North,349,2.0,4.0,57,0.00,,,0.00,Wunderground v.1.15,2013-01-10 14:51:00,
2013-01-10 09:56:00,42.8,28.6,30.23,ENE,67,2.0,4.0,57,0.00,,,0.00,Wunderground v.1.15,2013-01-10 14:56:00,
2013-01-10 10:06:00,43.3,29.1,30.23,WNW,295,2.0,4.0,57,0.00,,,0.00,Wunderground v.1.15,2013-01-10 15:06:00,
2013-01-10 10:16:00,43.3,28.6,30.24,ENE,64,3.0,3.0,56,0.00,,,0.00,Wunderground v.1.15,2013-01-10 15:16:00,
2013-01-10 10:26:00,43.3,28.6,30.23,NNE,22,2.0,2.0,56,0.00,,,0.00,Wunderground v.1.15,2013-01-10 15:26:00,
2013-01-10 10:36:00,43.7,29.0,30.24,West,259,2.0,4.0,56,0.00,,,0.00,Wunderground v.1.15,2013-01-10 15:36:00,
2013-01-10 10:41:00,43.7,29.0,30.24,NNW,340,2.0,2.0,56,0.00,,,0.00,Wunderground v.1.15,2013-01-10 15:41:00,
2013-01-10 10:46:00,43.8,29.1,30.24,NNW,345,2.0,2.0,56,0.00,,,0.00,Wunderground v.1.15,2013-01-10 15:46:00,
2013-01-10 10:56:00,44.1,29.4,30.24,WNW,288,2.0,5.0,56,0.00,,,0.00,Wunderground v.1.15,2013-01-10 15:56:00,
2013-01-10 11:01:00,44.2,29.0,30.24,WSW,249,2.0,2.0,55,0.00,,,0.00,Wunderground v.1.15,2013-01-10 16:01:00,
2013-01-10 11:11:00,44.5,30.2,30.23,NE,41,2.0,3.0,57,0.00,,,0.00,Wunderground v.1.15,2013-01-10 16:11:00,
2013-01-10 11:21:00,44.4,29.7,30.23,NE,45,2.0,2.0,56,0.00,,,0.00,Wunderground v.1.15,2013-01-10 16:21:00,
2013-01-10 11:31:00,44.4,29.7,30.23,North,355,2.0,2.0,56,0.00,,,0.00,Wunderground v.1.15,2013-01-10 16:31:00,
2013-01-10 11:41:00,44.4,29.2,30.24,West,271,2.0,2.0,55,0.00,,,0.00,Wunderground v.1.15,2013-01-10 16:41:00,
2013-01-10 11:46:00,44.5,29.3,30.24,West,277,2.0,2.0,55,0.00,,,0.00,Wunderground v.1.15,2013-01-10 16:46:00,
2013-01-10 11:56:00,44.7,30.0,30.24,North,5,2.0,3.0,56,0.00,,,0.00,Wunderground v.1.15,2013-01-10 16:56:00,
2013-01-10 12:06:00,44.7,29.1,30.24,NNW,344,2.0,5.0,54,0.00,,,0.00,Wunderground v.1.15,2013-01-10 17:06:00,
2013-01-10 12:11:00,44.5,29.3,30.24,NW,305,3.0,3.0,55,0.00,,,0.00,Wunderground v.1.15,2013-01-10 17:11:00,
2013-01-10 12:16:00,44.5,29.3,30.24,NNE,27,3.0,3.0,55,0.00,,,0.00,Wunderground v.1.15,2013-01-10 17:16:00,
2013-01-10 12:21:00,44.6,29.4,30.24,NW,317,2.0,3.0,55,0.00,,,0.00,Wunderground v.1.15,2013-01-10 17:21:00,
2013-01-10 12:31:00,44.6,29.4,30.23,ENE,67,2.0,2.0,55,0.00,,,0.00,Wunderground v.1.15,2013-01-10 17:31:00,
2013-01-10 12:41:00,44.5,29.3,30.23,NE,47,2.0,3.0,55,0.00,,,0.00,Wunderground v.1.15,2013-01-10 17:41:00,
2013-01-10 12:51:00,44.6,29.0,30.24,NNW,327,2.0,2.0,54,0.00,,,0.00,Wunderground v.1.15,2013-01-10 17:51:00,
2013-01-10 12:56:00,44.6,29.0,30.24,NNE,24,2.0,2.0,54,0.00,,,0.00,Wunderground v.1.15,2013-01-10 17:56:00,
2013-01-10 13:06:00,45.0,29.3,30.25,NW,317,2.0,4.0,54,0.00,,,0.00,Wunderground v.1.15,2013-01-10 18:06:00,
2013-01-10 13:11:00,45.0,29.8,30.25,East,95,2.0,3.0,55,0.00,,,0.00,Wunderground v.1.15,2013-01-10 18:11:00,
2013-01-10 13:21:00,44.9,29.7,30.26,WNW,292,1.0,3.0,55,0.00,,,0.00,Wunderground v.1.15,2013-01-10 18:21:00,
2013-01-10 13:31:00,45.1,29.4,30.27,NNE,18,2.0,2.0,54,0.00,,,0.00,Wunderground v.1.15,2013-01-10 18:31:00,
2013-01-10 13:41:00,45.1,29.4,30.27,SW,227,2.0,2.0,54,0.00,,,0.00,Wunderground v.1.15,2013-01-10 18:41:00,
2013-01-10 13:46:00,45.0,29.3,30.27,NNW,333,1.0,2.0,54,0.00,,,0.00,Wunderground v.1.15,2013-01-10 18:46:00,
2013-01-10 13:56:00,45.0,29.3,30.27,NE,36,2.0,2.0,54,0.00,,,0.00,Wunderground v.1.15,2013-01-10 18:56:00,
2013-01-10 14:01:00,44.9,29.2,30.27,NE,51,1.0,2.0,54,0.00,,,0.00,Wunderground v.1.15,2013-01-10 19:01:00,
2013-01-10 14:06:00,44.7,29.1,30.28,North,355,1.0,4.0,54,0.00,,,0.00,Wunderground v.1.15,2013-01-10 19:06:00,
2013-01-10 14:11:00,44.6,29.0,30.28,NNW,333,2.0,2.0,54,0.00,,,0.00,Wunderground v.1.15,2013-01-10 19:11:00,
2013-01-10 14:21:00,44.6,29.4,30.30,NNE,15,1.0,2.0,55,0.00,,,0.00,Wunderground v.1.15,2013-01-10 19:21:00,
2013-01-10 14:31:00,44.5,29.3,30.30,NNE,28,1.0,4.0,55,0.00,,,0.00,Wunderground v.1.15,2013-01-10 19:31:00,
2013-01-10 14:41:00,44.3,29.1,30.31,NNW,346,1.0,1.0,55,0.00,,,0.00,Wunderground v.1.15,2013-01-10 19:41:00,
2013-01-10 14:51:00,44.3,28.7,30.30,WNW,288,1.0,3.0,54,0.00,,,0.00,Wunderground v.1.15,2013-01-10 19:51:00,
2013-01-10 15:01:00,44.4,28.8,30.30,WNW,294,1.0,1.0,54,0.00,,,0.00,Wunderground v.1.15,2013-01-10 20:01:00,
2013-01-10 15:06:00,44.3,28.7,30.31,NW,305,1.0,3.0,54,0.00,,,0.00,Wunderground v.1.15,2013-01-10 20:06:00,
2013-01-10 15:16:00,43.6,28.9,30.32,NNW,327,2.0,2.0,56,0.00,,,0.00,Wunderground v.1.15,2013-01-10 20:16:00,
2013-01-10 15:26:00,43.1,28.5,30.32,West,275,2.0,3.0,56,0.00,,,0.00,Wunderground v.1.15,2013-01-10 20:26:00,
2013-01-10 15:36:00,42.9,28.3,30.33,ENE,65,1.0,4.0,56,0.00,,,0.00,Wunderground v.1.15,2013-01-10 20:36:00,
2013-01-10 15:41:00,42.8,28.2,30.34,ENE,60,1.0,1.0,56,0.00,,,0.00,Wunderground v.1.15,2013-01-10 20:41:00,
2013-01-10 15:51:00,42.5,28.3,30.34,NNE,18,0.0,0.0,57,0.00,,,0.00,Wunderground v.1.15,2013-01-10 20:51:00,
2013-01-10 16:01:00,42.2,28.0,30.34,NE,34,0.0,0.0,57,0.00,,,0.00,Wunderground v.1.15,2013-01-10 21:01:00,
2013-01-10 16:06:00,42.0,27.9,30.34,NE,38,1.0,1.0,57,0.00,,,0.00,Wunderground v.1.15,2013-01-10 21:06:00,
2013-01-10 16:16:00,41.8,28.1,30.33,NNW,347,1.0,2.0,58,0.00,,,0.00,Wunderground v.1.15,2013-01-10 21:16:00,
2013-01-10 16:21:00,41.6,27.9,30.33,West,270,1.0,3.0,58,0.00,,,0.00,Wunderground v.1.15,2013-01-10 21:21:00,
2013-01-10 16:26:00,41.6,27.9,30.33,West,271,1.0,3.0,58,0.00,,,0.00,Wunderground v.1.15,2013-01-10 21:26:00,
2013-01-10 16:36:00,41.3,27.6,30.36,WSW,258,0.0,1.0,58,0.00,,,0.00,Wunderground v.1.15,2013-01-10 21:36:00,
2013-01-10 16:46:00,41.0,27.8,30.37,WNW,288,0.0,0.0,59,0.00,,,0.00,Wunderground v.1.15,2013-01-10 21:46:00,
2013-01-10 16:56:00,40.5,27.7,30.36,WNW,288,1.0,1.0,60,0.00,,,0.00,Wunderground v.1.15,2013-01-10 21:56:00,
2013-01-10 17:06:00,40.4,27.6,30.38,NW,324,0.0,0.0,60,0.00,,,0.00,Wunderground v.1.15,2013-01-10 22:06:00,
2013-01-10 17:11:00,40.2,27.8,30.38,NNW,329,0.0,0.0,61,0.00,,,0.00,Wunderground v.1.15,2013-01-10 22:11:00,
2013-01-10 17:16:00,40.0,27.6,30.38,NNW,329,0.0,1.0,61,0.00,,,0.00,Wunderground v.1.15,2013-01-10 22:16:00,
2013-01-10 17:26:00,39.9,27.9,30.37,WNW,284,1.0,1.0,62,0.00,,,0.00,Wunderground v.1.15,2013-01-10 22:26:00,
2013-01-10 17:36:00,39.7,27.7,30.37,WNW,296,1.0,1.0,62,0.00,,,0.00,Wunderground v.1.15,2013-01-10 22:36:00,
2013-01-10 17:46:00,39.6,27.6,30.37,ENE,57,1.0,2.0,62,0.00,,,0.00,Wunderground v.1.15,2013-01-10 22:46:00,
2013-01-10 17:56:00,39.4,27.5,30.38,West,271,1.0,1.0,62,0.00,,,0.00,Wunderground v.1.15,2013-01-10 22:56:00,
2013-01-10 18:06:00,39.3,27.4,30.38,NW,319,1.0,1.0,62,0.00,,,0.00,Wunderground v.1.15,2013-01-10 23:06:00,
2013-01-10 18:16:00,38.9,27.4,30.39,NNW,327,0.0,2.0,63,0.00,,,0.00,Wunderground v.1.15,2013-01-10 23:16:00,
2013-01-10 18:26:00,38.7,27.2,30.39,NNE,24,1.0,2.0,63,0.00,,,0.00,Wunderground v.1.15,2013-01-10 23:26:00,
2013-01-10 18:31:00,38.6,27.1,30.39,NNE,18,1.0,1.0,63,0.00,,,0.00,Wunderground v.1.15,2013-01-10 23:31:00,
2013-01-10 18:36:00,38.4,26.9,30.40,NNE,32,1.0,2.0,63,0.00,,,0.00,Wunderground v.1.15,2013-01-10 23:36:00,
2013-01-10 18:41:00,38.3,27.2,30.40,NNE,32,0.0,0.0,64,0.00,,,0.00,Wunderground v.1.15,2013-01-10 23:41:00,
2013-01-10 18:51:00,38.0,26.9,30.39,NNE,21,1.0,1.0,64,0.00,,,0.00,Wunderground v.1.15,2013-01-10 23:51:00,
2013-01-10 18:56:00,37.9,27.2,30.39,NE,36,1.0,1.0,65,0.00,,,0.00,Wunderground v.1.15,2013-01-10 23:56:00,
2013-01-10 19:01:00,37.7,27.0,30.39,NE,36,0.0,0.0,65,0.00,,,0.00,Wunderground v.1.15,2013-01-11 00:01:00,
2013-01-10 19:11:00,37.5,26.8,30.40,NE,36,0.0,0.0,65,0.00,,,0.00,Wunderground v.1.15,2013-01-11 00:11:00,
2013-01-10 19:16:00,37.4,27.1,30.40,NE,36,0.0,4.0,66,0.00,,,0.00,Wunderground v.1.15,2013-01-11 00:16:00,
2013-01-10 19:26:00,37.4,27.1,30.40,NE,36,0.0,0.0,66,0.00,,,0.00,Wunderground v.1.15,2013-01-11 00:26:00,
2013-01-10 19:36:00,37.3,27.0,30.42,ENE,68,1.0,1.0,66,0.00,,,0.00,Wunderground v.1.15,2013-01-11 00:36:00,
2013-01-10 19:41:00,37.1,26.8,30.42,ENE,68,0.0,0.0,66,0.00,,,0.00,Wunderground v.1.15,2013-01-11 00:41:00,
2013-01-10 19:46:00,36.8,26.9,30.42,ENE,68,0.0,0.0,67,0.00,,,0.00,Wunderground v.1.15,2013-01-11 00:46:00,
2013-01-10 19:56:00,36.3,26.7,30.42,ENE,68,0.0,0.0,68,0.00,,,0.00,Wunderground v.1.15,2013-01-11 00:56:00,
2013-01-10 20:06:00,35.9,26.7,30.42,ENE,68,0.0,0.0,69,0.00,,,0.00,Wunderground v.1.15,2013-01-11 01:06:00,
2013-01-10 20:16:00,35.6,26.4,30.42,ENE,68,0.0,0.0,69,0.00,,,0.00,Wunderground v.1.15,2013-01-11 01:16:00,
2013-01-10 20:26:00,35.3,26.5,30.43,ENE,68,0.0,0.0,70,0.00,,,0.00,Wunderground v.1.15,2013-01-11 01:26:00,
2013-01-10 20:36:00,35.3,26.5,30.44,ENE,68,0.0,0.0,70,0.00,,,0.00,Wunderground v.1.15,2013-01-11 01:36:00,
2013-01-10 20:46:00,35.1,26.3,30.44,ENE,68,0.0,0.0,70,0.00,,,0.00,Wunderground v.1.15,2013-01-11 01:46:00,
2013-01-10 20:51:00,34.7,25.9,30.45,ENE,68,0.0,0.0,70,0.00,,,0.00,Wunderground v.1.15,2013-01-11 01:51:00,
2013-01-10 21:01:00,34.4,26.0,30.45,ENE,68,0.0,0.0,71,0.00,,,0.00,Wunderground v.1.15,2013-01-11 02:01:00,
2013-01-10 21:11:00,34.0,25.9,30.45,ENE,68,0.0,0.0,72,0.00,,,0.00,Wunderground v.1.15,2013-01-11 02:11:00,
2013-01-10 21:21:00,33.9,26.2,30.46,ENE,68,0.0,0.0,73,0.00,,,0.00,Wunderground v.1.15,2013-01-11 02:21:00,
2013-01-10 21:31:00,33.8,26.1,30.46,ENE,68,0.0,0.0,73,0.00,,,0.00,Wunderground v.1.15,2013-01-11 02:31:00,
2013-01-10 21:36:00,33.7,26.3,30.46,ENE,68,0.0,0.0,74,0.00,,,0.00,Wunderground v.1.15,2013-01-11 02:36:00,
2013-01-10 21:46:00,33.3,25.9,30.47,ENE,68,0.0,0.0,74,0.00,,,0.00,Wunderground v.1.15,2013-01-11 02:46:00,
2013-01-10 21:56:00,32.7,25.6,30.47,ENE,68,0.0,0.0,75,0.00,,,0.00,Wunderground v.1.15,2013-01-11 02:56:00,
2013-01-10 22:06:00,32.1,25.1,30.48,ENE,68,0.0,0.0,75,0.00,,,0.00,Wunderground v.1.15,2013-01-11 03:06:00,
2013-01-10 22:11:00,31.9,25.2,30.47,ENE,68,0.0,0.0,76,0.00,,,0.00,Wunderground v.1.15,2013-01-11 03:11:00,
2013-01-10 22:21:00,31.6,24.9,30.48,ENE,68,0.0,0.0,76,0.00,,,0.00,Wunderground v.1.15,2013-01-11 03:21:00,
2013-01-10 22:31:00,31.5,25.1,30.48,ENE,68,0.0,0.0,77,0.00,,,0.00,Wunderground v.1.15,2013-01-11 03:31:00,
2013-01-10 22:40:00,31.5,25.1,30.48,ENE,68,0.0,0.0,77,0.00,,,0.00,Wunderground v.1.15,2013-01-11 03:40:00,
2013-01-10 22:46:00,31.6,25.5,30.48,ENE,68,0.0,0.0,78,0.00,,,0.00,Wunderground v.1.15,2013-01-11 03:46:00,
2013-01-10 22:56:00,32.1,25.7,30.48,ENE,68,0.0,0.0,77,0.00,,,0.00,Wunderground v.1.15,2013-01-11 03:56:00,
2013-01-10 23:06:00,32.2,25.8,30.48,ENE,68,0.0,0.0,77,0.00,,,0.00,Wunderground v.1.15,2013-01-11 04:06:00,
2013-01-10 23:16:00,31.9,25.5,30.47,ENE,68,0.0,0.0,77,0.00,,,0.00,Wunderground v.1.15,2013-01-11 04:16:00,
2013-01-10 23:21:00,31.7,25.3,30.47,ENE,68,0.0,0.0,77,0.00,,,0.00,Wunderground v.1.15,2013-01-11 04:21:00,
2013-01-10 23:31:00,31.4,25.3,30.47,ENE,68,0.0,0.0,78,0.00,,,0.00,Wunderground v.1.15,2013-01-11 04:31:00,
2013-01-10 23:36:00,31.6,25.5,30.47,ENE,68,0.0,0.0,78,0.00,,,0.00,Wunderground v.1.15,2013-01-11 04:36:00,
2013-01-10 23:46:00,31.8,25.7,30.46,ENE,68,0.0,0.0,78,0.00,,,0.00,Wunderground v.1.15,2013-01-11 04:46:00,
2013-01-10 23:51:00,31.9,25.8,30.46,ENE,68,0.0,0.0,78,0.00,,,0.00,Wunderground v.1.15,2013-01-11 04:51:00,
2013-01-10 23:56:00,32.1,25.7,30.46,ENE,68,0.0,0.0,77,0.00,,,0.00,Wunderground v.1.15,2013-01-11 04:56:00,